sat.trackr.live / text

‹ back to catalog

STARLINK-5510

NORAD 55647 · 2023-021V

PAYLOAD ACTIVE UNKNOWN

§ Identity

Operator
Country
US
Launch date
2023-02-17
Launch site
AFWTR
Launch vehicle
Mass (kg)
RCS (m²)

Purposes: comms

External: N2YO · Heavens-Above · Gunter

§ Orbital elements

Epoch: 2026-09-20T16:29:38.810400Z

Period
96.11 min
Inclination
69.9999°
Eccentricity
0.0003065
Mean motion
14.98330021 rev/d
Perigee alt
569.9 km
Apogee alt
574.2 km
Semi-major
6,950.2 km
B*
4.1843e-5
RAAN
52.6561°
Arg perigee
267.5978°
Mean anomaly
92.4830°
Rev number
19,800

§ Raw data

STARLINK-55101 55647U 23021V   26263.68725475  .00000406  00000+0  41843-4 0  99912 55647  69.9999  52.6561 0003065 267.5978  92.4830 14.98330021198008

JSON: /api/v1/satellites/55647 · /tle

For live sub-satellite position, see the globe view (requires WebGL).

§ Visibility from observer

Set your observer location to see the next 7 days of passes ≥ 10°. The values pass through the URL so the page stays shareable.

No JS? Fill the form by hand. The geolocation button needs JavaScript.